LUF5510 ZMCK-UNNT

Flight info

Callsign LUF5510
Flight time N/A
Altitude 34000
Route LUBSO A575 DARNO/K0830F340 A575 NOSPI R241 BEGIL
Aircraft B738/M-SDE2E3FGHIRWXY/LB1

Departure

Time 2026-04-19 08:02
Airport Ulaanbaatar Chinggis Khaan International Airport (ZMCK)

Arrival

Time N/A
Airport Novosibirsk Tolmachevo Airport (UNNT)
Time Latitude Longitude Altitude Speed Heading
2026-04-19 07:08 47.65037 106.82212 4498 ft 0 kts 355°
2026-04-19 07:48 47.65029 106.82213 4497 ft 2 kts 355°
2026-04-19 07:48 47.65014 106.82214 4496 ft 2 kts 356°
2026-04-19 07:48 47.64999 106.82217 4496 ft 2 kts 355°
2026-04-19 07:48 47.64984 106.82218 4495 ft 2 kts 356°
2026-04-19 07:49 47.64970 106.82220 4494 ft 2 kts 355°
2026-04-19 07:49 47.64954 106.82222 4493 ft 2 kts 357°
2026-04-19 07:49 47.64939 106.82222 4492 ft 2 kts 20°
2026-04-19 07:49 47.64926 106.82209 4491 ft 2 kts 55°
2026-04-19 07:50 47.64922 106.82188 4490 ft 2 kts 89°
2026-04-19 07:50 47.64924 106.82170 4490 ft 0 kts 112°
2026-04-19 07:50 47.64925 106.82167 4490 ft 0 kts 111°
2026-04-19 07:53 47.64924 106.82170 4490 ft 1 kts 110°
2026-04-19 07:53 47.64922 106.82175 4490 ft 1 kts 109°
2026-04-19 07:54 47.64918 106.82193 4490 ft 3 kts 109°
2026-04-19 07:54 47.64911 106.82241 4491 ft 6 kts 103°
2026-04-19 07:54 47.64899 106.82312 4491 ft 8 kts 104°
2026-04-19 07:54 47.64881 106.82413 4491 ft 11 kts 104°
2026-04-19 07:55 47.64855 106.82524 4489 ft 11 kts 123°
2026-04-19 07:55 47.64788 106.82605 4486 ft 14 kts 143°
2026-04-19 07:55 47.64734 106.82741 4483 ft 16 kts 107°
2026-04-19 07:55 47.64702 106.82915 4480 ft 18 kts 104°
2026-04-19 07:56 47.64669 106.83103 4480 ft 18 kts 105°
2026-04-19 07:56 47.64637 106.83281 4479 ft 18 kts 105°
2026-04-19 07:56 47.64605 106.83461 4481 ft 17 kts 104°
2026-04-19 07:56 47.64575 106.83638 4480 ft 18 kts 104°
2026-04-19 07:57 47.64542 106.83822 4479 ft 18 kts 105°
2026-04-19 07:57 47.64509 106.84012 4477 ft 19 kts 104°
2026-04-19 07:57 47.64475 106.84198 4480 ft 17 kts 103°
2026-04-19 07:57 47.64426 106.84311 4482 ft 10 kts 153°
2026-04-19 07:58 47.64386 106.84323 4481 ft 0 kts 187°
2026-04-19 08:00 47.64382 106.84322 4481 ft 2 kts 187°
2026-04-19 08:00 47.64337 106.84309 4480 ft 9 kts 196°
2026-04-19 08:00 47.64294 106.84232 4476 ft 11 kts 275°
2026-04-19 08:01 47.64316 106.84097 4475 ft 18 kts 285°
2026-04-19 08:01 47.64399 106.83634 4473 ft 75 kts 284°
2026-04-19 08:01 47.64574 106.82640 4472 ft 125 kts 285°
2026-04-19 08:01 47.64823 106.81225 4726 ft 145 kts 286°
2026-04-19 08:02 47.65057 106.79833 5371 ft 142 kts 287°
2026-04-19 08:02 47.65338 106.78396 5875 ft 149 kts 288°
2026-04-19 08:02 47.65616 106.76852 6306 ft 156 kts 287°
2026-04-19 08:02 47.65883 106.75253 6646 ft 165 kts 288°
2026-04-19 08:03 47.66185 106.73559 6943 ft 176 kts 288°
2026-04-19 08:03 47.66518 106.71727 7215 ft 188 kts 291°
2026-04-19 08:03 47.67252 106.70072 7483 ft 200 kts 314°
2026-04-19 08:03 47.68340 106.68619 7675 ft 219 kts 315°
2026-04-19 08:04 47.69461 106.67033 8162 ft 225 kts 314°
2026-04-19 08:04 47.70587 106.65334 8540 ft 237 kts 313°
2026-04-19 08:04 47.71746 106.63553 9068 ft 242 kts 313°
2026-04-19 08:04 47.72919 106.61751 9596 ft 247 kts 313°
2026-04-19 08:05 47.74119 106.59911 10187 ft 249 kts 313°
2026-04-19 08:05 47.75336 106.58046 10603 ft 258 kts 314°
2026-04-19 08:05 47.76612 106.56088 10967 ft 270 kts 314°
2026-04-19 08:05 47.77959 106.54017 11286 ft 282 kts 314°
2026-04-19 08:06 47.79350 106.51880 11605 ft 294 kts 315°
2026-04-19 08:06 47.80783 106.49676 12135 ft 299 kts 315°
2026-04-19 08:06 47.82229 106.47450 12861 ft 298 kts 316°
2026-04-19 08:06 47.83664 106.45239 13569 ft 298 kts 316°
2026-04-19 08:07 47.85072 106.43013 14267 ft 299 kts 314°
2026-04-19 08:07 47.86425 106.40601 14925 ft 302 kts 313°
2026-04-19 08:07 47.87729 106.38102 15639 ft 303 kts 312°
2026-04-19 08:07 47.89019 106.35586 16258 ft 306 kts 312°
2026-04-19 08:08 47.90325 106.33051 16954 ft 307 kts 312°
2026-04-19 08:08 47.91652 106.30496 17603 ft 309 kts 311°
2026-04-19 08:08 47.92970 106.27970 18208 ft 312 kts 312°
2026-04-19 08:08 47.94320 106.25388 18779 ft 315 kts 313°
2026-04-19 08:09 47.95660 106.22826 19368 ft 318 kts 313°
2026-04-19 08:09 47.97037 106.20193 20000 ft 319 kts 313°
2026-04-19 08:09 47.98416 106.17548 20680 ft 319 kts 312°
2026-04-19 08:09 47.99770 106.14951 21229 ft 321 kts 313°
2026-04-19 08:10 48.01151 106.12298 21709 ft 325 kts 313°
2026-04-19 08:10 48.02559 106.09589 22230 ft 328 kts 313°
2026-04-19 08:10 48.03958 106.06899 22721 ft 331 kts 313°
2026-04-19 08:10 48.05360 106.04193 23268 ft 332 kts 313°
2026-04-19 08:11 48.06776 106.01457 23835 ft 332 kts 313°
2026-04-19 08:11 48.08192 105.98715 24312 ft 335 kts 313°
2026-04-19 08:11 48.09627 105.95941 24752 ft 337 kts 313°
2026-04-19 08:11 48.11063 105.93166 25178 ft 340 kts 313°
2026-04-19 08:12 48.12513 105.90357 25573 ft 344 kts 313°
2026-04-19 08:12 48.13922 105.87387 25989 ft 350 kts 308°
2026-04-19 08:12 48.15134 105.84233 26345 ft 357 kts 304°
2026-04-19 08:12 48.16228 105.80903 26730 ft 361 kts 301°
2026-04-19 08:13 48.17277 105.77498 27149 ft 363 kts 301°
2026-04-19 08:13 48.18341 105.74010 27500 ft 366 kts 301°
2026-04-19 08:13 48.19389 105.70573 27892 ft 367 kts 301°
2026-04-19 08:13 48.20465 105.67053 28265 ft 369 kts 301°
2026-04-19 08:14 48.21537 105.63557 28646 ft 371 kts 300°
2026-04-19 08:14 48.23693 105.56528 29351 ft 374 kts 300°
2026-04-19 08:14 48.24778 105.52990 29716 ft 376 kts 301°
2026-04-19 08:15 48.25877 105.49410 29905 ft 381 kts 301°
2026-04-19 08:15 48.26992 105.45777 30181 ft 384 kts 300°
2026-04-19 08:15 48.28102 105.42155 30626 ft 382 kts 300°
2026-04-19 08:15 48.29205 105.38540 31179 ft 377 kts 300°
2026-04-19 08:16 48.30271 105.35034 31555 ft 375 kts 300°
2026-04-19 08:16 48.31366 105.31435 31837 ft 374 kts 299°
2026-04-19 08:16 48.32449 105.27883 32103 ft 374 kts 299°
2026-04-19 08:16 48.33521 105.24360 32258 ft 378 kts 298°
2026-04-19 08:17 48.34621 105.20744 32396 ft 382 kts 299°
2026-04-19 08:17 48.35721 105.17115 32696 ft 380 kts 299°
2026-04-19 08:17 48.36808 105.13517 33004 ft 377 kts 299°
2026-04-19 08:17 48.37875 105.09984 33304 ft 375 kts 298°
2026-04-19 08:18 48.38954 105.06417 33436 ft 379 kts 298°
2026-04-19 08:18 48.40050 105.02788 33574 ft 382 kts 298°
2026-04-19 08:18 48.41153 104.99128 33771 ft 384 kts 298°
2026-04-19 08:18 48.42245 104.95498 33989 ft 384 kts 298°
2026-04-19 08:19 48.44430 104.88200 34050 ft 379 kts 298°
2026-04-19 08:19 48.46594 104.80956 34050 ft 380 kts 298°
2026-04-19 08:20 48.48762 104.73688 34037 ft 377 kts 298°
2026-04-19 08:20 48.50903 104.66488 34050 ft 378 kts 298°
2026-04-19 08:21 48.53023 104.59334 34058 ft 378 kts 298°
2026-04-19 08:21 48.55154 104.52118 34063 ft 375 kts 298°
2026-04-19 08:22 48.57288 104.44871 34041 ft 375 kts 298°
2026-04-19 08:22 48.59386 104.37725 34032 ft 375 kts 298°
2026-04-19 08:23 48.61510 104.30484 34023 ft 376 kts 298°
2026-04-19 08:23 48.63617 104.23272 34006 ft 376 kts 297°
2026-04-19 08:24 48.65720 104.16044 34030 ft 377 kts 297°
2026-04-19 08:24 48.67814 104.08820 34004 ft 375 kts 297°
2026-04-19 08:25 48.69903 104.01606 34036 ft 377 kts 297°
2026-04-19 08:25 48.71988 103.94385 34016 ft 374 kts 298°
2026-04-19 08:26 48.74073 103.87138 34015 ft 376 kts 297°
2026-04-19 08:26 48.76168 103.79835 34021 ft 377 kts 297°
2026-04-19 08:27 48.78234 103.72602 34021 ft 376 kts 297°
2026-04-19 08:27 48.80321 103.65286 34003 ft 378 kts 297°
2026-04-19 08:28 48.82382 103.58037 34012 ft 376 kts 298°
2026-04-19 08:28 48.84455 103.50726 33985 ft 377 kts 298°
2026-04-19 08:29 48.86514 103.43446 33992 ft 377 kts 297°
2026-04-19 08:29 48.88555 103.36149 34004 ft 376 kts 297°
2026-04-19 08:30 48.90494 103.28692 34008 ft 378 kts 295°
2026-04-19 08:30 48.92381 103.21246 34017 ft 378 kts 295°
2026-04-19 08:31 48.94277 103.13789 34010 ft 378 kts 295°
2026-04-19 08:31 48.96163 103.06379 34002 ft 376 kts 295°
2026-04-19 08:32 48.98061 102.98929 33983 ft 378 kts 296°
2026-04-19 08:32 48.99953 102.91473 33997 ft 378 kts 296°
2026-04-19 08:33 49.01844 102.84004 34005 ft 378 kts 296°
2026-04-19 08:33 49.03717 102.76588 34021 ft 378 kts 295°
2026-04-19 08:34 49.05601 102.69092 34027 ft 378 kts 295°
2026-04-19 08:34 49.07468 102.61634 34016 ft 379 kts 296°
2026-04-19 08:35 49.09354 102.54088 34024 ft 377 kts 295°
2026-04-19 08:35 49.11216 102.46613 34022 ft 380 kts 295°
2026-04-19 08:36 49.13088 102.39069 34026 ft 379 kts 295°
2026-04-19 08:36 49.14939 102.31577 34022 ft 378 kts 294°
2026-04-19 08:37 49.16795 102.24041 34016 ft 379 kts 294°
2026-04-19 08:37 49.18648 102.16499 34020 ft 379 kts 294°
2026-04-19 08:38 49.20501 102.08936 34028 ft 379 kts 294°
2026-04-19 08:38 49.22325 102.01451 34036 ft 379 kts 294°
2026-04-19 08:39 49.24171 101.93883 34034 ft 381 kts 295°
2026-04-19 08:39 49.26023 101.86240 34033 ft 379 kts 294°
2026-04-19 08:40 49.27848 101.78680 34025 ft 379 kts 295°
2026-04-19 08:40 49.29662 101.71144 34016 ft 379 kts 294°
2026-04-19 08:41 49.31472 101.63588 34030 ft 376 kts 294°
2026-04-19 08:41 49.33274 101.56053 34037 ft 379 kts 294°
2026-04-19 08:42 49.35085 101.48444 34042 ft 377 kts 294°
2026-04-19 08:42 49.36878 101.40906 34044 ft 379 kts 294°
2026-04-19 08:43 49.38668 101.33338 34038 ft 376 kts 293°
2026-04-19 08:43 49.40453 101.25769 34039 ft 378 kts 293°
2026-04-19 08:44 49.42225 101.18234 34040 ft 377 kts 294°
2026-04-19 08:44 49.44006 101.10640 34043 ft 377 kts 294°
2026-04-19 08:45 49.45774 101.03067 34041 ft 377 kts 293°
2026-04-19 08:45 49.47535 100.95493 34038 ft 377 kts 293°
2026-04-19 08:46 49.49295 100.87888 34032 ft 378 kts 293°
2026-04-19 08:46 49.51043 100.80296 34049 ft 379 kts 293°
2026-04-19 08:47 49.52801 100.72659 34037 ft 378 kts 293°
2026-04-19 08:47 49.54540 100.65067 34042 ft 379 kts 293°
2026-04-19 08:48 49.56300 100.57369 34056 ft 380 kts 293°
2026-04-19 08:48 49.58038 100.49712 34053 ft 379 kts 293°
2026-04-19 08:49 49.59770 100.42060 34062 ft 380 kts 293°
2026-04-19 08:49 49.61510 100.34360 34067 ft 380 kts 292°
2026-04-19 08:50 49.63241 100.26677 34061 ft 380 kts 292°
2026-04-19 08:50 49.65015 100.19032 34058 ft 380 kts 295°
2026-04-19 08:51 49.67395 100.11781 34059 ft 378 kts 301°
2026-04-19 08:51 49.70078 100.04866 34042 ft 377 kts 303°
2026-04-19 08:52 49.72802 99.97950 34048 ft 377 kts 303°
2026-04-19 08:52 49.75514 99.90974 34067 ft 378 kts 303°
2026-04-19 08:53 49.78191 99.84029 34064 ft 376 kts 302°
2026-04-19 08:53 49.80883 99.77002 34087 ft 380 kts 302°
2026-04-19 08:54 49.83556 99.69998 34068 ft 378 kts 302°
2026-04-19 08:54 49.86229 99.62974 34055 ft 379 kts 302°
2026-04-19 08:55 49.88892 99.55960 34055 ft 379 kts 302°
2026-04-19 08:55 49.91570 99.48890 34025 ft 380 kts 302°
2026-04-19 08:56 49.94243 99.41812 34042 ft 380 kts 302°
2026-04-19 08:56 49.96874 99.34822 34035 ft 380 kts 301°
2026-04-19 08:57 49.99467 99.27921 34043 ft 380 kts 301°
2026-04-19 08:57 50.02023 99.21094 34043 ft 380 kts 301°
2026-04-19 08:58 50.04679 99.13981 34045 ft 379 kts 301°
2026-04-19 08:58 50.07328 99.06871 34033 ft 381 kts 301°
2026-04-19 08:59 50.09978 98.99738 34037 ft 380 kts 301°
2026-04-19 08:59 50.12608 98.92632 34052 ft 381 kts 301°
2026-04-19 09:00 50.15245 98.85489 34059 ft 381 kts 301°
2026-04-19 09:00 50.17894 98.78299 34078 ft 380 kts 301°
2026-04-19 09:01 50.20524 98.71145 34101 ft 382 kts 301°
2026-04-19 09:01 50.23161 98.63953 34077 ft 381 kts 301°
2026-04-19 09:02 50.25759 98.56842 34060 ft 380 kts 301°
2026-04-19 09:02 50.28376 98.49666 34062 ft 380 kts 300°
2026-04-19 09:03 50.30993 98.42460 34068 ft 380 kts 301°
2026-04-19 09:03 50.33599 98.35266 34058 ft 379 kts 300°
2026-04-19 09:04 50.36162 98.28151 34058 ft 371 kts 299°
2026-04-19 09:04 50.38574 98.20915 34066 ft 381 kts 298°
2026-04-19 09:05 50.40939 98.13573 34074 ft 378 kts 298°
2026-04-19 09:05 50.43317 98.06206 34078 ft 377 kts 298°
2026-04-19 09:06 50.45693 97.98862 34072 ft 378 kts 297°
2026-04-19 09:06 50.48057 97.91557 34079 ft 377 kts 298°
2026-04-19 09:07 50.50422 97.84238 34099 ft 379 kts 297°
2026-04-19 09:07 50.52803 97.76858 34115 ft 376 kts 298°
2026-04-19 09:08 50.55162 97.69522 34127 ft 377 kts 298°
2026-04-19 09:08 50.57526 97.62138 34136 ft 377 kts 298°
2026-04-19 09:09 50.59865 97.54807 34132 ft 376 kts 298°
2026-04-19 09:09 50.62207 97.47453 34118 ft 375 kts 297°
2026-04-19 09:10 50.64534 97.40128 34119 ft 377 kts 298°
2026-04-19 09:10 50.66880 97.32720 34128 ft 377 kts 297°
2026-04-19 09:11 50.69217 97.25320 34148 ft 377 kts 297°
2026-04-19 09:11 50.71531 97.17967 34150 ft 377 kts 297°
2026-04-19 09:12 50.73869 97.10519 34155 ft 378 kts 297°
2026-04-19 09:12 50.76189 97.03098 34159 ft 376 kts 297°
2026-04-19 09:13 50.78490 96.95715 34161 ft 377 kts 297°
2026-04-19 09:13 50.80798 96.88292 34136 ft 375 kts 297°
2026-04-19 09:14 50.83093 96.80889 34114 ft 377 kts 297°
2026-04-19 09:14 50.85381 96.73486 34076 ft 376 kts 297°
2026-04-19 09:15 50.87662 96.66078 34089 ft 376 kts 297°
2026-04-19 09:16 50.91087 96.54923 34114 ft 375 kts 297°
2026-04-19 09:16 50.93368 96.47470 34139 ft 377 kts 297°
2026-04-19 09:17 50.95644 96.40008 34135 ft 376 kts 297°
2026-04-19 09:17 50.97902 96.32577 34144 ft 377 kts 296°
2026-04-19 09:18 51.00166 96.25109 34144 ft 377 kts 296°
2026-04-19 09:18 51.02425 96.17632 34132 ft 375 kts 296°
2026-04-19 09:19 51.04659 96.10216 34130 ft 375 kts 296°
2026-04-19 09:19 51.06915 96.02693 34118 ft 376 kts 296°
2026-04-19 09:20 51.09160 95.95195 34130 ft 377 kts 296°
2026-04-19 09:20 51.11392 95.87711 34133 ft 377 kts 296°
2026-04-19 09:21 51.13636 95.80167 34146 ft 377 kts 296°
2026-04-19 09:21 51.15868 95.72633 34149 ft 375 kts 296°
2026-04-19 09:22 51.18080 95.65146 34152 ft 375 kts 296°
2026-04-19 09:22 51.20284 95.57665 34159 ft 374 kts 296°
2026-04-19 09:23 51.22494 95.50146 34176 ft 375 kts 296°
2026-04-19 09:23 51.24693 95.42649 34176 ft 374 kts 296°
2026-04-19 09:24 51.26884 95.35152 34170 ft 375 kts 296°
2026-04-19 09:24 51.29078 95.27623 34170 ft 374 kts 295°
2026-04-19 09:25 51.31248 95.20144 34170 ft 373 kts 295°
2026-04-19 09:25 51.33425 95.12610 34174 ft 374 kts 295°
2026-04-19 09:26 51.35592 95.05087 34176 ft 374 kts 295°
2026-04-19 09:26 51.37769 94.97511 34178 ft 374 kts 295°
2026-04-19 09:27 51.39922 94.89989 34183 ft 375 kts 295°
2026-04-19 09:27 51.42089 94.82397 34185 ft 375 kts 295°
2026-04-19 09:28 51.44249 94.74809 34190 ft 377 kts 295°
2026-04-19 09:28 51.46417 94.67169 34190 ft 377 kts 295°
2026-04-19 09:29 51.48586 94.59490 34188 ft 378 kts 295°
2026-04-19 09:29 51.50743 94.51836 34180 ft 378 kts 295°
2026-04-19 09:30 51.52889 94.44195 34179 ft 378 kts 295°
2026-04-19 09:30 51.55049 94.36470 34177 ft 379 kts 295°
2026-04-19 09:31 51.57188 94.28805 34174 ft 380 kts 294°
2026-04-19 09:31 51.59371 94.21066 34172 ft 379 kts 296°
2026-04-19 09:32 51.61838 94.13596 34155 ft 379 kts 298°
2026-04-19 09:32 51.64451 94.06216 34155 ft 380 kts 298°
2026-04-19 09:33 51.67046 93.98852 34128 ft 381 kts 298°
2026-04-19 09:33 51.69630 93.91438 34115 ft 381 kts 298°
2026-04-19 09:34 51.72208 93.83987 34124 ft 380 kts 298°
2026-04-19 09:34 51.74768 93.76560 34121 ft 380 kts 298°
2026-04-19 09:35 51.77317 93.69134 34117 ft 380 kts 298°
2026-04-19 09:35 51.79876 93.61660 34120 ft 380 kts 298°
2026-04-19 09:36 51.82407 93.54240 34136 ft 380 kts 298°
2026-04-19 09:36 51.84956 93.46747 34152 ft 380 kts 298°
2026-04-19 09:37 51.87489 93.39278 34137 ft 379 kts 298°
2026-04-19 09:37 51.90007 93.31827 34109 ft 378 kts 297°
2026-04-19 09:38 51.92531 93.24351 34107 ft 379 kts 297°
2026-04-19 09:38 51.95037 93.16891 34107 ft 377 kts 297°
2026-04-19 09:39 51.97541 93.09416 34109 ft 376 kts 297°
2026-04-19 09:39 52.00037 93.01962 34112 ft 375 kts 298°
2026-04-19 09:40 52.02516 92.94513 34111 ft 377 kts 297°
2026-04-19 09:40 52.04991 92.87066 34105 ft 376 kts 297°
2026-04-19 09:41 52.07462 92.79597 34085 ft 376 kts 297°
2026-04-19 09:41 52.09922 92.72141 34073 ft 375 kts 297°
2026-04-19 09:42 52.12382 92.64661 34072 ft 377 kts 297°
2026-04-19 09:42 52.14832 92.57185 34078 ft 375 kts 297°
2026-04-19 09:43 52.17284 92.49694 34080 ft 375 kts 297°
2026-04-19 09:43 52.19721 92.42228 34080 ft 375 kts 297°
2026-04-19 09:44 52.22171 92.34686 34059 ft 375 kts 297°
2026-04-19 09:44 52.24609 92.27172 34058 ft 375 kts 297°
2026-04-19 09:45 52.27025 92.19698 34052 ft 376 kts 297°
2026-04-19 09:45 52.29448 92.12180 34028 ft 375 kts 297°
2026-04-19 09:46 52.31867 92.04645 34004 ft 376 kts 297°
2026-04-19 09:46 52.34287 91.97084 33994 ft 375 kts 297°
2026-04-19 09:47 52.36693 91.89546 34004 ft 375 kts 297°
2026-04-19 09:47 52.39084 91.82032 34015 ft 374 kts 297°
2026-04-19 09:48 52.41478 91.74479 34046 ft 374 kts 297°
2026-04-19 09:48 52.43868 91.66920 34061 ft 375 kts 297°
2026-04-19 09:49 52.46253 91.59350 34085 ft 374 kts 296°
2026-04-19 09:49 52.48615 91.51834 34093 ft 374 kts 297°
2026-04-19 09:50 52.51002 91.44222 34091 ft 374 kts 297°
2026-04-19 09:50 52.53369 91.36649 34098 ft 375 kts 297°
2026-04-19 09:51 52.55736 91.29057 34077 ft 374 kts 296°
2026-04-19 09:51 52.58093 91.21472 34092 ft 374 kts 296°
2026-04-19 09:52 52.60455 91.13865 34097 ft 374 kts 296°
2026-04-19 09:52 52.62794 91.06287 34109 ft 373 kts 296°
2026-04-19 09:53 52.65133 90.98656 34109 ft 372 kts 296°
2026-04-19 09:53 52.67465 90.91030 34113 ft 372 kts 296°
2026-04-19 09:54 52.69784 90.83437 34105 ft 373 kts 296°
2026-04-19 09:54 52.72107 90.75804 34096 ft 375 kts 296°
2026-04-19 09:55 52.74444 90.68102 34100 ft 375 kts 296°
2026-04-19 09:55 52.76762 90.60451 34116 ft 375 kts 296°
2026-04-19 09:56 52.79090 90.52736 34110 ft 375 kts 296°
2026-04-19 09:56 52.81413 90.45015 34130 ft 377 kts 296°
2026-04-19 09:57 52.83719 90.37325 34114 ft 374 kts 296°
2026-04-19 09:57 52.86027 90.29591 34106 ft 376 kts 296°
2026-04-19 09:58 52.88319 90.21894 34118 ft 375 kts 296°
2026-04-19 09:58 52.90622 90.14133 34121 ft 376 kts 296°
2026-04-19 09:59 52.92903 90.06425 34114 ft 375 kts 295°
2026-04-19 09:59 52.95199 89.98637 34108 ft 376 kts 295°
2026-04-19 10:00 52.97484 89.90859 34114 ft 376 kts 295°
2026-04-19 10:00 52.99754 89.83113 34100 ft 375 kts 295°
2026-04-19 10:01 53.02018 89.75354 34110 ft 376 kts 295°
2026-04-19 10:01 53.04297 89.67520 34096 ft 376 kts 296°
2026-04-19 10:02 53.06548 89.59761 34094 ft 375 kts 296°
2026-04-19 10:02 53.08816 89.51914 34069 ft 377 kts 295°
2026-04-19 10:03 53.11079 89.44064 34070 ft 377 kts 295°
2026-04-19 10:03 53.13335 89.36208 34069 ft 377 kts 295°
2026-04-19 10:04 53.15586 89.28347 34077 ft 377 kts 295°
2026-04-19 10:04 53.17838 89.20458 34073 ft 376 kts 295°
2026-04-19 10:05 53.20073 89.12601 34085 ft 378 kts 295°
2026-04-19 10:05 53.22310 89.04712 34092 ft 377 kts 295°
2026-04-19 10:06 53.24547 88.96789 34100 ft 376 kts 295°
2026-04-19 10:06 53.26776 88.88886 34110 ft 377 kts 295°
2026-04-19 10:07 53.28999 88.80991 34118 ft 376 kts 295°
2026-04-19 10:07 53.31206 88.73132 34127 ft 376 kts 295°
2026-04-19 10:08 53.33408 88.65253 34121 ft 375 kts 294°
2026-04-19 10:08 53.35615 88.57324 34119 ft 376 kts 294°
2026-04-19 10:09 53.37807 88.49435 34109 ft 375 kts 294°
2026-04-19 10:09 53.39991 88.41544 34102 ft 374 kts 294°
2026-04-19 10:10 53.42171 88.33632 34105 ft 374 kts 294°
2026-04-19 10:10 53.44334 88.25764 34112 ft 373 kts 294°
2026-04-19 10:11 53.46498 88.17857 34119 ft 373 kts 294°
2026-04-19 10:11 53.48649 88.09982 34119 ft 371 kts 294°
2026-04-19 10:12 53.50798 88.02100 34122 ft 372 kts 294°
2026-04-19 10:12 53.52935 87.94215 34131 ft 371 kts 294°
2026-04-19 10:13 53.55067 87.86330 34139 ft 371 kts 294°
2026-04-19 10:13 53.57188 87.78450 34130 ft 371 kts 294°
2026-04-19 10:14 53.59303 87.70573 34131 ft 372 kts 293°
2026-04-19 10:14 53.61420 87.62652 34130 ft 371 kts 294°
2026-04-19 10:15 53.63523 87.54752 34124 ft 371 kts 293°
2026-04-19 10:15 53.65636 87.46790 34127 ft 372 kts 294°
2026-04-19 10:16 53.67738 87.38845 34127 ft 371 kts 294°
2026-04-19 10:16 53.69835 87.30894 34125 ft 372 kts 293°
2026-04-19 10:17 53.71928 87.22939 34119 ft 371 kts 292°
2026-04-19 10:17 53.74011 87.14998 34118 ft 372 kts 293°
2026-04-19 10:18 53.76091 87.07041 34124 ft 373 kts 292°
2026-04-19 10:18 53.78174 86.99022 34127 ft 373 kts 292°
2026-04-19 10:19 53.81278 86.87024 34121 ft 374 kts 293°
2026-04-19 10:19 53.83518 86.79069 34118 ft 374 kts 295°
2026-04-19 10:20 53.85852 86.71173 34110 ft 374 kts 295°
2026-04-19 10:20 53.88165 86.63313 34117 ft 374 kts 295°
2026-04-19 10:21 53.90456 86.55430 34101 ft 374 kts 295°
2026-04-19 10:21 53.92739 86.47510 34094 ft 374 kts 295°
2026-04-19 10:22 53.95011 86.39591 34091 ft 373 kts 295°
2026-04-19 10:22 53.97268 86.31693 34079 ft 371 kts 294°
2026-04-19 10:23 53.99522 86.23769 34078 ft 371 kts 294°
2026-04-19 10:23 54.01768 86.15853 34084 ft 373 kts 294°
2026-04-19 10:24 54.04010 86.07941 34084 ft 372 kts 294°
2026-04-19 10:24 54.06237 86.00056 34082 ft 372 kts 294°
2026-04-19 10:25 54.08459 85.92158 34083 ft 372 kts 294°
2026-04-19 10:25 54.10694 85.84185 34086 ft 372 kts 294°
2026-04-19 10:26 54.12903 85.76273 34090 ft 373 kts 294°
2026-04-19 10:26 54.15120 85.68313 34084 ft 372 kts 294°
2026-04-19 10:27 54.17336 85.60333 34086 ft 373 kts 294°
2026-04-19 10:27 54.19533 85.52379 34086 ft 373 kts 294°
2026-04-19 10:28 54.21743 85.44355 34083 ft 373 kts 294°
2026-04-19 10:28 54.23920 85.36323 34082 ft 373 kts 292°
2026-04-19 10:29 54.25777 85.28065 34085 ft 373 kts 289°
2026-04-19 10:29 54.27511 85.19759 34077 ft 372 kts 289°
2026-04-19 10:30 54.29270 85.11441 33921 ft 373 kts 289°
2026-04-19 10:30 54.30151 85.07317 33489 ft 371 kts 289°
2026-04-19 10:30 54.31035 85.03192 32885 ft 370 kts 289°
2026-04-19 10:31 54.31920 84.99067 32295 ft 369 kts 289°
2026-04-19 10:31 54.32785 84.95029 31776 ft 366 kts 289°
2026-04-19 10:31 54.33666 84.90915 31203 ft 364 kts 289°
2026-04-19 10:31 54.34522 84.86916 30637 ft 361 kts 289°
2026-04-19 10:32 54.35381 84.82887 30091 ft 358 kts 289°
2026-04-19 10:32 54.36229 84.78909 29537 ft 354 kts 289°
2026-04-19 10:32 54.37061 84.74988 29000 ft 351 kts 289°
2026-04-19 10:32 54.37888 84.71088 28463 ft 348 kts 289°
2026-04-19 10:33 54.38709 84.67213 27924 ft 345 kts 289°
2026-04-19 10:33 54.39516 84.63397 27403 ft 341 kts 289°
2026-04-19 10:33 54.40310 84.59634 26885 ft 338 kts 290°
2026-04-19 10:33 54.41103 84.55870 26359 ft 335 kts 290°
2026-04-19 10:34 54.41891 84.52125 25838 ft 332 kts 290°
2026-04-19 10:34 54.42674 84.48396 25327 ft 329 kts 289°
2026-04-19 10:34 54.43433 84.44778 24828 ft 326 kts 289°
2026-04-19 10:34 54.44191 84.41155 24327 ft 323 kts 290°
2026-04-19 10:35 54.44952 84.37502 23822 ft 325 kts 290°
2026-04-19 10:35 54.45715 84.33836 23311 ft 328 kts 289°
2026-04-19 10:35 54.46483 84.30141 22788 ft 327 kts 289°
2026-04-19 10:35 54.47236 84.26513 22294 ft 324 kts 289°
2026-04-19 10:36 54.47989 84.22883 21780 ft 322 kts 289°
2026-04-19 10:36 54.48730 84.19301 21299 ft 319 kts 289°
2026-04-19 10:36 54.49489 84.15746 20788 ft 317 kts 291°
2026-04-19 10:36 54.50389 84.12302 20301 ft 315 kts 296°
2026-04-19 10:37 54.51497 84.09069 19828 ft 313 kts 301°
2026-04-19 10:37 54.52682 84.05991 19329 ft 311 kts 302°
2026-04-19 10:37 54.53906 84.02913 18844 ft 308 kts 302°
2026-04-19 10:37 54.55113 83.99878 18361 ft 306 kts 302°
2026-04-19 10:38 54.56300 83.96867 17896 ft 304 kts 302°
2026-04-19 10:38 54.57477 83.93849 17428 ft 302 kts 302°
2026-04-19 10:38 54.58641 83.90839 16941 ft 301 kts 302°
2026-04-19 10:38 54.59776 83.87890 16475 ft 299 kts 302°
2026-04-19 10:39 54.60928 83.84887 16002 ft 297 kts 302°
2026-04-19 10:39 54.62051 83.81953 15534 ft 295 kts 302°
2026-04-19 10:39 54.63173 83.79023 15078 ft 293 kts 302°
2026-04-19 10:39 54.64291 83.76096 14605 ft 291 kts 302°
2026-04-19 10:40 54.65397 83.73202 14152 ft 289 kts 302°
2026-04-19 10:40 54.66495 83.70319 13722 ft 288 kts 302°
2026-04-19 10:40 54.67598 83.67424 13260 ft 287 kts 302°
2026-04-19 10:40 54.68686 83.64569 12800 ft 285 kts 302°
2026-04-19 10:41 54.69768 83.61723 12353 ft 283 kts 302°
2026-04-19 10:41 54.70842 83.58894 11908 ft 282 kts 302°
2026-04-19 10:41 54.71905 83.56053 11478 ft 279 kts 300°
2026-04-19 10:41 54.72852 83.53140 11018 ft 278 kts 297°
2026-04-19 10:42 54.73711 83.50163 10629 ft 274 kts 295°
2026-04-19 10:42 54.74523 83.47238 10413 ft 265 kts 295°
2026-04-19 10:42 54.75308 83.44430 10311 ft 252 kts 295°
2026-04-19 10:42 54.76057 83.41795 10219 ft 241 kts 295°
2026-04-19 10:43 54.76793 83.39223 9965 ft 237 kts 295°
2026-04-19 10:43 54.77515 83.36691 9623 ft 235 kts 295°
2026-04-19 10:43 54.78243 83.34152 9320 ft 232 kts 294°
2026-04-19 10:43 54.78954 83.31675 9026 ft 230 kts 294°
2026-04-19 10:44 54.79664 83.29198 8711 ft 227 kts 294°
2026-04-19 10:44 54.80352 83.26784 8439 ft 228 kts 294°
2026-04-19 10:44 54.81062 83.24287 8152 ft 232 kts 294°
2026-04-19 10:44 54.81775 83.21783 7819 ft 231 kts 294°
2026-04-19 10:45 54.82475 83.19315 7536 ft 228 kts 294°
2026-04-19 10:45 54.83170 83.16877 7242 ft 225 kts 294°
2026-04-19 10:45 54.83870 83.14423 6947 ft 223 kts 294°
2026-04-19 10:45 54.84730 83.12196 6598 ft 227 kts 310°
2026-04-19 10:46 54.86100 83.10779 6283 ft 238 kts 336°
2026-04-19 10:46 54.87720 83.10190 5986 ft 240 kts 342°
2026-04-19 10:46 54.89360 83.09673 5663 ft 239 kts 341°
2026-04-19 10:46 54.90991 83.09111 5356 ft 235 kts 341°
2026-04-19 10:47 54.92530 83.08402 5068 ft 222 kts 330°
2026-04-19 10:47 54.93745 83.06979 4851 ft 201 kts 307°
2026-04-19 10:47 54.94611 83.05172 4648 ft 192 kts 304°
2026-04-19 10:47 54.95444 83.03435 4448 ft 185 kts 305°
2026-04-19 10:48 54.96278 83.01778 4252 ft 176 kts 306°
2026-04-19 10:48 54.97060 83.00242 4033 ft 167 kts 306°
2026-04-19 10:48 54.97816 82.98753 3903 ft 160 kts 306°
2026-04-19 10:48 54.98547 82.97298 3757 ft 161 kts 306°
2026-04-19 10:49 54.99285 82.95833 3590 ft 161 kts 306°
2026-04-19 10:49 55.00029 82.94365 3390 ft 161 kts 306°
2026-04-19 10:49 55.00766 82.92907 3227 ft 162 kts 306°
2026-04-19 10:49 55.01508 82.91438 3074 ft 162 kts 307°
2026-04-19 10:50 55.02254 82.89970 2900 ft 161 kts 307°
2026-04-19 10:50 55.02982 82.88483 2728 ft 160 kts 302°
2026-04-19 10:50 55.03363 82.86732 2544 ft 158 kts 273°
2026-04-19 10:50 55.03154 82.84917 2367 ft 151 kts 252°
2026-04-19 10:51 55.02865 82.83222 2179 ft 142 kts 263°
2026-04-19 10:51 55.02729 82.81480 1954 ft 146 kts 264°
2026-04-19 10:51 55.02555 82.79748 1758 ft 146 kts 264°
2026-04-19 10:51 55.02385 82.78016 1557 ft 148 kts 263°
2026-04-19 10:52 55.02232 82.76244 1359 ft 147 kts 266°
2026-04-19 10:52 55.02110 82.74463 1175 ft 149 kts 263°
2026-04-19 10:52 55.01936 82.72669 962 ft 154 kts 263°
2026-04-19 10:52 55.01748 82.70791 771 ft 156 kts 263°
2026-04-19 10:53 55.01574 82.68948 682 ft 153 kts 264°
2026-04-19 10:53 55.01418 82.67072 1288 ft 167 kts 267°
2026-04-19 10:53 55.01469 82.65301 2581 ft 132 kts 287°
2026-04-19 10:53 55.01648 82.64172 3475 ft 106 kts 280°
2026-04-19 10:54 55.01863 82.62399 2267 ft 187 kts 286°
2026-04-19 10:54 55.02150 82.60055 1673 ft 213 kts 276°
2026-04-19 10:54 55.01730 82.57523 2222 ft 228 kts 237°
2026-04-19 10:54 55.00710 82.55776 3557 ft 204 kts 228°
2026-04-19 10:55 54.99770 82.54067 3994 ft 192 kts 233°
2026-04-19 10:55 54.98847 82.52485 4024 ft 181 kts 225°
2026-04-19 10:55 54.97744 82.51474 4024 ft 185 kts 204°
2026-04-19 10:55 54.96431 82.51136 4024 ft 193 kts 189°
2026-04-19 10:56 54.95095 82.51372 4024 ft 200 kts 173°
2026-04-19 10:56 54.93816 82.52432 4022 ft 209 kts 150°
2026-04-19 10:56 54.92749 82.54230 4040 ft 216 kts 132°
2026-04-19 10:56 54.92046 82.56550 4013 ft 222 kts 109°
2026-04-19 10:57 54.91671 82.59315 4004 ft 249 kts 103°
2026-04-19 10:57 54.91322 82.62271 4022 ft 257 kts 103°
2026-04-19 10:57 54.90940 82.65334 4023 ft 259 kts 104°
2026-04-19 10:57 54.90542 82.68378 4026 ft 259 kts 105°
2026-04-19 10:58 54.90138 82.71443 4028 ft 259 kts 105°
2026-04-19 10:58 54.89740 82.74458 4043 ft 259 kts 105°
2026-04-19 10:58 54.89333 82.77525 4017 ft 257 kts 105°
2026-04-19 10:58 54.88928 82.80576 4016 ft 258 kts 104°
2026-04-19 10:59 54.88537 82.83614 4015 ft 259 kts 101°
2026-04-19 10:59 54.88432 82.86694 4072 ft 262 kts 81°
2026-04-19 10:59 54.88966 82.89812 4657 ft 270 kts 66°
2026-04-19 10:59 54.89652 82.92791 5025 ft 267 kts 65°
2026-04-19 11:00 54.90337 82.95787 5019 ft 264 kts 63°
2026-04-19 11:00 54.90528 82.96531 5021 ft 261 kts 60°